Regional Weather Roundup
Issued by NWS

Home | Current Version | Previous Version | Graphics & Text | Print | Product List | Glossary On
Versions: 1 2 3 4 5 6 7 8 9 10 11 12 13 14 15 16 17 18 19 20 21 22 23 24 25 26 27 28 29 30 31 32 33 34 35 36 37 38 39 40 41 42 43 44 45 46 47 48 49 50
000
ASUS45 KTFX 012319
RWRMT
MONTANA HOURLY WEATHER ROUNDUP
NATIONAL WEATHER SERVICE GREAT FALLS MT
519 PM MDT WED APR 1 2015

NOTE: "FAIR" INDICATES FEW OR NO CLOUDS BELOW 12000 FEET WITH NO
SIGNIFICANT WEATHER AND/OR OBSTRUCTIONS TO VISIBILITY.

* THESE STATIONS ARE NOT UNDER NWS QUALITY CONTROL. THEY DO NOT
   REPORT WEATHER SUCH AS PRECIPITATION OR FOG.

MTZ001>007-043-020000-
WEST OF THE DIVIDE
CITY           SKY/WX    TMP DP  RH WIND       PRES   REMARKS
KALISPELL      PTCLDY    48  18  30 W16G24    29.92R
MISSOULA       PTCLDY    43  25  49 NW23G29   30.03F
BUTTE          N/A       36  12  37 NW16G30   29.95S WCI  26
MULLAN PASS    LGT SNOW  25  23  92 VRB5      29.98S VSB 1/2  WCI  19
* ESSEX        N/A       40  20  45 SW2G7      N/A
* EUREKA APT   MOCLDY    46  21  37 SW12G21   29.95S
* HAMILTON APT PTCLDY    41  25  53 N8        30.04R
* LIBBY APT    MOCLDY    48  21  34 S7        29.99F
* LINCOLN      N/A       42  12  29 SW9G22     N/A
* LOOKOUT PASS N/A       28  27  96 NE8G18     N/A   WCI  20
* POLSON       N/A       47  20  34 W2G9       N/A
* RONAN APT    PTCLDY    48  19  32 SW17G24    N/A
* SEELEY LAKE  N/A       42  19  40 W9G21      N/A
* THOMP F APT  MOCLDY    40   2  20 NW7G24     N/A   WCI  35
$$

MTZ008-052>055-020000-
SOUTHWEST MONTANA
CITY           SKY/WX    TMP DP  RH WIND       PRES   REMARKS
BOZEMAN        CLOUDY    39  21  48 W16       29.94S WCI  30
DILLON         MOCLDY    36  21  54 SW22      29.96R WCI  25
* W YELLOWSTON MOCLDY    37  23  57 SW5G12     N/A   WCI  33
* THREE FORKS  CLOUDY    45  14  28 W20G35     N/A
* TWIN BRIDGES MOCLDY    37  16  42 N/A        N/A
* BOULDER HILL N/A       35  12  38 S11G19     N/A   WCI  27
* HOMESTAKE PS N/A       32  12  43 N10G20     N/A   WCI  24
* MONIDA PASS  N/A       34   5  29 W15G24     N/A   WCI  24
* RAYNOLDS PAS N/A       34  33  96 NW10G19    N/A   WCI  26
* WHITEHALL    N/A       40  17  39 W8G25      N/A   WCI  35
* WISE RIVER   N/A       33  17  52 W7G12      N/A   WCI  27
$$

MTZ009>010-012-014-046-048-049-054-020000-
EAST SLOPES AND CENTRAL MONTANA
CITY           SKY/WX    TMP DP  RH WIND       PRES   REMARKS
CUT BANK       CLEAR     45  16  31 W40G52    29.77S
GREAT FALLS    MOCLDY    52   3  13 W26G36    29.81F
HELENA         MOCLDY    46  12  25 W29G37    29.90S
MALMSTROM AFB  MOCLDY    50   1  13 W29G36    29.83S
* CONRAD       CLEAR     48  16  28 SW30G40    N/A
* DEARBORN     N/A       50   7  17 S12G24     N/A
* EAST GLACIER N/A       38  16  41 NW22G38    N/A   WCI  27
* MONARCH      N/A       38   6  26 NW22G32    N/A   WCI  27
* PENDROY      N/A       43  16  34 W24G39     N/A
* ROGERS PASS  N/A       37   5  26 E17G30     N/A   WCI  27
* SAINT MARY   N/A       38  12  34 W11G22     N/A   WCI  31
* SWEET GRASS  N/A       48   6  18 NW29G47    N/A
* WHITE SULPH  N/A       41   5  22 W12G25     N/A
$$

MTZ011-013-016-021-035-040-045-047-050-051-020000-
NORTH CENTRAL MONTANA
CITY           SKY/WX    TMP DP  RH WIND       PRES   REMARKS
HAVRE          MOCLDY    52  14  22 W32G41    29.73S
LEWISTOWN      MOCLDY    46  10  23 NW21G31   29.81S
* N BAR RANCH  FAIR      45   5  19 NW22G36   29.81S
* CHINOOK      MOCLDY    48  14  25 W18G23    29.73R
* FORT BENTON  MOCLDY    50   7  17 W30G38    29.79S
* MALTA APT    PTCLDY    52  27  38 W10G18     N/A
* CHESTER      N/A       48   9  20 W27G40     N/A
* DENTON       N/A       46  11  24 W36G43     N/A
* GEYSER       N/A       44   9  24 W27G35     N/A
* JUDITH GAP   N/A       42   8  24 NW20G29    N/A
* LOMA         N/A       52   6  15 SW33G45    N/A
$$

MTZ017>020-022>027-061-062-020000-
NORTHEAST MONTANA
CITY           SKY/WX    TMP DP  RH WIND       PRES   REMARKS
GLASGOW        MOCLDY    50  25  38 W23G30    29.72F
GLENDIVE       CLEAR     52  19  27 W31G39    29.75S
JORDAN         PTCLDY    54  19  25 W21G28    29.75F
SIDNEY         PTCLDY    54  23  30 W25G33    29.70S
WOLF POINT     PTCLDY    54  23  30 W28G33    29.72S
* BEAVER HILL  N/A       49  22  35 W31G39     N/A
* CIRCLE       N/A       50  27  41 W17G25     N/A
* LINDSAY DVD  N/A       48  21  34 W26G35     N/A
* NAVAJO       N/A       48  22  36 W26G34     N/A
* PLENTYWOOD A MOCLDY    50  23  35 W22G30    29.63F
* POPLAR APT   PTCLDY    52  25  35 W25G31    29.71S
* SACO         N/A       50  25  38 SW27G35    N/A
$$

MTZ028>042-056>058-020000-
SOUTHCENTRAL AND SOUTHEAST MONTANA
CITY           SKY/WX    TMP DP  RH WIND       PRES   REMARKS
BAKER          PTCLDY    54  12  19 W26G39    29.74R
BILLINGS       MOCLDY    52   7  16 NW25G36   29.84F
LIVINGSTON     CLOUDY    45  16  31 W25G33    29.90S
MILES CITY     PTCLDY    63  10  12 W33G38    29.77S
* BIG TIMBER A CLOUDY    41  16  36 W16G23    29.90R
* FORSYTH APT  PTCLDY    54  14  20 W21G26    29.79R
* LAUREL APT   MOCLDY    52   9  17 W23G37     N/A
* ROUNDUP APT  MOCLDY    52   7  16 SW21G33    N/A
* ALZADA       N/A       53  13  20 W13G21     N/A
* HYSHAM       N/A       48  15  27 W6G19      N/A
* LAME DEER    N/A       47   5  18 W24G39     N/A
* REED POINT   N/A       47  17  30 W27G40     N/A
* ROSCOE HILL  N/A       46   3  17 W4G22      N/A
$$

REGIONAL REPORTS...DAKOTAS
CITY           SKY/WX    TMP DP  RH WIND       PRES   REMARKS
WILLISTON      MOCLDY    52  21  30 W24G39    29.67R
DICKINSON      CLEAR     52  18  26 W26G36    29.67R
BEACH          CLEAR     50  23  35 NW25G39   29.74R
CROSBY         CLEAR     50  21  32 W26G35    29.62R
TIOGA          PTCLDY    48  21  34 NW23G29   29.66R
WATFORD CITY   FAIR      52  19  27 W24G35    29.65R
BISMARCK       MOCLDY    61  28  29 NW21G30   29.64R
GRAND FORKS    MOCLDY    61  45  56 NW21      29.43R
FARGO          PTCLDY    66  41  40 NW26G36   29.48R
BUFFALO SD     PTCLDY    55   9  16 W33G38    29.70R
RAPID CITY     MOCLDY    54  21  27 NW24G37   29.78R
$$

REGIONAL REPORTS...WYOMING/IDAHO/WASHINGTON
CITY           SKY/WX    TMP DP  RH WIND       PRES   REMARKS
GILLETTE       CLOUDY    46  10  23 NW20G30   29.84R
SHERIDAN       CLOUDY    48  12  23 NW15G26   29.85R
CODY           PTCLDY    43  14  31 SW15G28   29.90S
YELLOWSTONE LA CLOUDY    28  10  47 W8G20     29.95S WCI  20
SALMON         MOCLDY    39  19  45 SW6       30.02S WCI  35
MULLAN PASS    LGT SNOW  25  23  92 VRB5      29.98S VSB 1/2  WCI  19
SAND POINT     CLOUDY    43  32  65 CALM      30.06R
SPOKANE        TSTM      46  28  50 SW12      30.06F
$$

REGIONAL REPORTS...ALBERTA
CITY           SKY/WX    TMP DP  RH WIND       PRES   REMARKS
CALGARY        CLOUDY    41  19  41 N30G40    29.79R
LETHBRIDGE     MOCLDY    48   9  20 W28G36    29.74R
MEDICINE HAT   CLOUDY    43  27  53 NW33G51   29.69R
EDMONTON       LGT SNOW  34  28  79 N28G36    29.82R WCI  21
WATERTON GATE  N/A       43  16  34 W17G32     N/A
CARDSTON       N/A       43  19  38 W24G38     N/A
MILK RIVER     N/A       48  14  25 W36G45     N/A
$$

REGIONAL REPORTS...SASKATCHEWAN
CITY           SKY/WX    TMP DP  RH WIND       PRES   REMARKS
SWIFT CURRENT  PTCLDY    48  16  28 W30G38    29.53F
REGINA         MOCLDY    48  27  44 W26       29.54S
VAL MARIE      N/A       52  14  22 W29G38     N/A
ASSINIBOIA     N/A       46  27  48 NW25       N/A
CORONACH       N/A       48  19  32 W25G35     N/A

$$



USA.gov is the U.S. government's official web portal to all federal, state and local government web resources and services.